TimeAKST,TemperatureF,Dew PointF,Humidity,Sea Level PressureIn,VisibilityMPH,Wind Direction,Wind SpeedMPH,Gust SpeedMPH,PrecipitationIn,Events,Conditions,WindDirDegrees,DateUTC
12:53 AM,45.0,41.0,86,29.68,10.0,SE,18.4,27.6,0.05,Rain,Light Rain,140,2012-11-24 09:53:00
1:53 AM,45.0,41.0,86,29.69,10.0,SE,18.4,25.3,0.05,Rain,Rain,140,2012-11-24 10:53:00
2:38 AM,44.6,42.8,93,29.70,5.0,SE,20.7,29.9,0.07,Rain,Light Rain,140,2012-11-24 11:38:00
3:07 AM,44.6,41.0,87,29.70,8.0,SE,18.4,32.2,0.01,Rain,Light Rain,140,2012-11-24 12:07:00
3:24 AM,44.6,41.0,87,29.70,7.0,SE,15.0,24.2,0.04,Rain,Light Rain,140,2012-11-24 12:24:00
3:53 AM,44.1,41.0,89,29.71,5.0,SE,17.3,25.3,0.11,Rain,Light Rain,140,2012-11-24 12:53:00
4:10 AM,44.6,41.0,87,29.71,7.0,SE,18.4,26.5,0.03,Rain,Light Rain,140,2012-11-24 13:10:00
4:53 AM,44.1,41.0,89,29.71,4.0,SE,18.4,27.6,0.13,Rain,Rain,140,2012-11-24 13:53:00
5:23 AM,44.6,39.2,81,29.72,7.0,SE,15.0,23.0,0.05,Rain,Rain,140,2012-11-24 14:23:00
5:53 AM,43.0,41.0,93,29.73,5.0,SE,19.6,-,0.16,Rain,Rain,130,2012-11-24 14:53:00
6:06 AM,44.6,41.0,87,29.72,6.0,SE,15.0,36.8,0.02,Rain,Light Rain,140,2012-11-24 15:06:00
6:53 AM,44.1,41.0,89,29.74,7.0,SE,17.3,26.5,0.09,Rain,Light Rain,130,2012-11-24 15:53:00
7:53 AM,44.1,41.0,89,29.76,6.0,SSE,13.8,28.8,0.05,Rain,Light Rain,150,2012-11-24 16:53:00
8:53 AM,44.6,41.0,87,29.78,5.0,SE,16.1,-,N/A,Rain,Light Rain,130,2012-11-24 17:53:00
9:53 AM,44.1,42.1,93,29.80,7.0,SE,18.4,-,0.07,Rain,Light Rain,130,2012-11-24 18:53:00
10:53 AM,43.0,41.0,93,29.81,9.0,SE,19.6,28.8,0.05,Rain,Light Rain,130,2012-11-24 19:53:00
11:53 AM,44.6,42.8,93,29.81,8.0,SE,17.3,-,N/A,Rain,Light Rain,130,2012-11-24 20:53:00
12:53 PM,44.1,43.0,96,29.83,10.0,SE,11.5,-,0.00,Rain,Light Rain,130,2012-11-24 21:53:00
1:53 PM,45.0,42.1,90,29.85,10.0,SE,11.5,-,0.01,,Overcast,130,2012-11-24 22:53:00
2:53 PM,45.0,42.1,90,29.86,10.0,SE,10.4,-,N/A,,Overcast,140,2012-11-24 23:53:00
3:53 PM,44.1,41.0,89,29.88,10.0,SE,8.1,-,N/A,,Overcast,130,2012-11-25 00:53:00
4:53 PM,44.1,41.0,89,29.91,10.0,ESE,8.1,-,0.01,,Overcast,110,2012-11-25 01:53:00
5:53 PM,43.0,41.0,93,29.94,10.0,SE,3.5,-,0.00,,Overcast,140,2012-11-25 02:53:00
6:53 PM,42.1,41.0,96,29.97,9.0,SSE,4.6,-,0.00,Rain,Light Rain,150,2012-11-25 03:53:00
7:36 PM,42.8,41.0,93,30.00,4.0,North,4.6,-,0.04,Rain,Rain,350,2012-11-25 04:36:00
7:53 PM,42.1,39.0,89,30.01,10.0,North,8.1,-,0.04,,Overcast,350,2012-11-25 04:53:00
8:00 PM,42.8,39.2,87,30.01,10.0,NW,10.4,-,N/A,,Overcast,310,2012-11-25 05:00:00
8:53 PM,42.1,37.9,85,30.05,10.0,North,8.1,-,0.01,,Overcast,360,2012-11-25 05:53:00
9:00 PM,42.8,37.4,81,30.05,10.0,NNW,9.2,-,N/A,,Overcast,340,2012-11-25 06:00:00
9:25 PM,41.0,37.4,87,30.06,10.0,Variable,4.6,-,N/A,,Overcast,0,2012-11-25 06:25:00
9:42 PM,41.0,37.4,87,30.07,10.0,NW,4.6,-,N/A,,Mostly Cloudy,320,2012-11-25 06:42:00
9:53 PM,39.9,36.0,86,30.08,10.0,NW,6.9,-,N/A,,Scattered Clouds,320,2012-11-25 06:53:00
10:53 PM,39.9,36.0,86,30.12,10.0,NW,4.6,-,N/A,,Mostly Cloudy,320,2012-11-25 07:53:00
11:53 PM,39.9,36.0,86,30.15,10.0,Calm,Calm,-,N/A,,Overcast,0,2012-11-25 08:53:00